Year,Month,Day,Hour,Minute,Value (Times are PST for temperature in C)
2014,09,20,00,00,14.60
2014,09,20,00,01,14.70
2014,09,20,00,02,14.70
2014,09,20,00,03,14.70
2014,09,20,00,04,14.70
2014,09,20,00,05,14.70
2014,09,20,00,06,14.70
2014,09,20,00,07,14.70
2014,09,20,00,08,14.70
2014,09,20,00,09,14.70
2014,09,20,00,10,14.70
2014,09,20,00,11,14.70
2014,09,20,00,12,14.70
2014,09,20,00,13,14.70
2014,09,20,00,14,14.70
2014,09,20,00,15,14.70
2014,09,20,00,16,14.70
2014,09,20,00,17,14.70
2014,09,20,00,18,14.60
2014,09,20,00,19,14.60
2014,09,20,00,20,14.60
2014,09,20,00,21,14.50
2014,09,20,00,22,14.50
2014,09,20,00,23,14.50
2014,09,20,00,24,14.50
2014,09,20,00,25,14.50
2014,09,20,00,26,14.50
2014,09,20,00,27,14.60
2014,09,20,00,28,14.60
2014,09,20,00,29,14.60
2014,09,20,00,30,14.60
2014,09,20,00,31,14.70
2014,09,20,00,32,14.70
2014,09,20,00,33,14.70
2014,09,20,00,34,14.70
2014,09,20,00,35,14.70
2014,09,20,00,36,14.70
2014,09,20,00,37,14.70
2014,09,20,00,38,14.60
2014,09,20,00,39,14.60
2014,09,20,00,40,14.60
2014,09,20,00,41,14.60
2014,09,20,00,42,14.60
2014,09,20,00,43,14.70
2014,09,20,00,44,14.80
2014,09,20,00,45,14.80
2014,09,20,00,46,14.80
2014,09,20,00,47,14.80
2014,09,20,00,48,14.80
2014,09,20,00,49,14.80
2014,09,20,00,50,14.80
2014,09,20,00,51,14.80
2014,09,20,00,52,14.80
2014,09,20,00,53,14.80
2014,09,20,00,54,14.80
2014,09,20,00,55,14.80
2014,09,20,00,56,14.90
2014,09,20,00,57,14.90
2014,09,20,00,58,14.90
2014,09,20,00,59,14.90
2014,09,20,01,00,14.90
2014,09,20,01,01,14.90
2014,09,20,01,02,14.90
2014,09,20,01,03,14.90
2014,09,20,01,04,14.90
2014,09,20,01,05,14.90
2014,09,20,01,06,14.90
2014,09,20,01,07,14.90
2014,09,20,01,08,14.90
2014,09,20,01,09,14.90
2014,09,20,01,10,14.90
2014,09,20,01,11,14.90
2014,09,20,01,12,14.90
2014,09,20,01,13,14.90
2014,09,20,01,14,14.80
2014,09,20,01,15,14.80
2014,09,20,01,16,14.80
2014,09,20,01,17,14.80
2014,09,20,01,18,14.80
2014,09,20,01,19,14.80
2014,09,20,01,20,14.80
2014,09,20,01,21,14.80
2014,09,20,01,22,14.80
2014,09,20,01,23,14.80
2014,09,20,01,24,14.80
2014,09,20,01,25,14.70
2014,09,20,01,26,14.70
2014,09,20,01,27,14.70
2014,09,20,01,28,14.70
2014,09,20,01,29,14.60
2014,09,20,01,30,14.60
2014,09,20,01,31,14.60
2014,09,20,01,32,14.60
2014,09,20,01,33,14.60
2014,09,20,01,34,14.60
2014,09,20,01,35,14.50
2014,09,20,01,36,14.50
2014,09,20,01,37,14.50
2014,09,20,01,38,14.50
2014,09,20,01,39,14.50
2014,09,20,01,40,14.50
2014,09,20,01,41,14.50
2014,09,20,01,42,14.60
2014,09,20,01,43,14.60
2014,09,20,01,44,14.60
2014,09,20,01,45,14.60
2014,09,20,01,46,14.50
2014,09,20,01,47,14.50
2014,09,20,01,48,14.50
2014,09,20,01,49,14.50
2014,09,20,01,50,14.50
2014,09,20,01,51,14.50
2014,09,20,01,52,14.50
2014,09,20,01,53,14.50
2014,09,20,01,54,14.50
2014,09,20,01,55,14.50
2014,09,20,01,56,14.50
2014,09,20,01,57,14.50
2014,09,20,01,58,14.60
2014,09,20,01,59,14.60
2014,09,20,02,00,14.60
2014,09,20,02,01,14.60
2014,09,20,02,02,14.60
2014,09,20,02,03,14.60
2014,09,20,02,04,14.50
2014,09,20,02,05,14.30
2014,09,20,02,06,13.90
2014,09,20,02,07,13.70
2014,09,20,02,08,13.40
2014,09,20,02,09,13.30
2014,09,20,02,10,13.10
2014,09,20,02,11,13.00
2014,09,20,02,12,12.90
2014,09,20,02,13,12.90
2014,09,20,02,14,12.80
2014,09,20,02,15,12.80
2014,09,20,02,16,12.80
2014,09,20,02,17,12.70
2014,09,20,02,18,12.60
2014,09,20,02,19,12.60
2014,09,20,02,20,12.60
2014,09,20,02,21,12.50
2014,09,20,02,22,12.50
2014,09,20,02,23,12.40
2014,09,20,02,24,12.40
2014,09,20,02,25,12.30
2014,09,20,02,26,12.30
2014,09,20,02,27,12.30
2014,09,20,02,28,12.30
2014,09,20,02,29,12.30
2014,09,20,02,30,12.20
2014,09,20,02,31,12.20
2014,09,20,02,32,12.20
2014,09,20,02,33,12.10
2014,09,20,02,34,12.10
2014,09,20,02,35,12.10
2014,09,20,02,36,12.10
2014,09,20,02,37,12.00
2014,09,20,02,38,12.00
2014,09,20,02,39,12.00
2014,09,20,02,40,12.00
2014,09,20,02,41,12.00
2014,09,20,02,42,11.90
2014,09,20,02,43,11.90
2014,09,20,02,44,11.90
2014,09,20,02,45,11.90
2014,09,20,02,46,11.90
2014,09,20,02,47,11.80
2014,09,20,02,48,11.80
2014,09,20,02,49,11.80
2014,09,20,02,50,11.80
2014,09,20,02,51,11.80
2014,09,20,02,52,11.80
2014,09,20,02,53,11.80
2014,09,20,02,54,11.80
2014,09,20,02,55,11.80
2014,09,20,02,56,11.80
2014,09,20,02,57,11.70
2014,09,20,02,58,11.70
2014,09,20,02,59,11.70
2014,09,20,03,00,11.70
2014,09,20,03,01,11.60
2014,09,20,03,02,11.60
2014,09,20,03,03,11.60
2014,09,20,03,04,11.60
2014,09,20,03,05,11.60
2014,09,20,03,06,11.60
2014,09,20,03,07,11.60
2014,09,20,03,08,11.60
2014,09,20,03,09,11.50
2014,09,20,03,10,11.40
2014,09,20,03,11,11.40
2014,09,20,03,12,11.40
2014,09,20,03,13,11.40
2014,09,20,03,14,11.40
2014,09,20,03,15,11.40
2014,09,20,03,16,11.40
2014,09,20,03,17,11.40
2014,09,20,03,18,11.40
2014,09,20,03,19,11.40
2014,09,20,03,20,11.40
2014,09,20,03,21,11.40
2014,09,20,03,22,11.40
2014,09,20,03,23,11.40
2014,09,20,03,24,11.40
2014,09,20,03,25,11.40
2014,09,20,03,26,11.40
2014,09,20,03,27,11.40
2014,09,20,03,28,11.40
2014,09,20,03,29,11.40
2014,09,20,03,30,11.40
2014,09,20,03,31,11.40
2014,09,20,03,32,11.40
2014,09,20,03,33,11.40
2014,09,20,03,34,11.40
2014,09,20,03,35,11.40
2014,09,20,03,36,11.40
2014,09,20,03,37,11.40
2014,09,20,03,38,11.40
2014,09,20,03,39,11.60
2014,09,20,03,40,11.60
2014,09,20,03,41,11.60
2014,09,20,03,42,11.60
2014,09,20,03,43,11.60
2014,09,20,03,44,11.60
2014,09,20,03,45,11.60
2014,09,20,03,46,11.60
2014,09,20,03,47,11.60
2014,09,20,03,48,11.70
2014,09,20,03,49,11.70
2014,09,20,03,50,11.80
2014,09,20,03,51,11.80
2014,09,20,03,52,11.80
2014,09,20,03,53,11.80
2014,09,20,03,54,11.90
2014,09,20,03,55,12.00
2014,09,20,03,56,12.10
2014,09,20,03,57,12.10
2014,09,20,03,58,12.20
2014,09,20,03,59,12.20
2014,09,20,04,00,12.20
2014,09,20,04,01,12.30
2014,09,20,04,02,12.30
2014,09,20,04,03,12.30
2014,09,20,04,04,12.30
2014,09,20,04,05,12.40
2014,09,20,04,06,12.40
2014,09,20,04,07,12.40
2014,09,20,04,08,12.40
2014,09,20,04,09,12.40
2014,09,20,04,10,12.40
2014,09,20,04,11,12.40
2014,09,20,04,12,12.40
2014,09,20,04,13,12.50
2014,09,20,04,14,12.50
2014,09,20,04,15,12.50
2014,09,20,04,16,12.50
2014,09,20,04,17,12.50
2014,09,20,04,18,12.50
2014,09,20,04,19,12.50
2014,09,20,04,20,12.50
2014,09,20,04,21,12.50
2014,09,20,04,22,12.50
2014,09,20,04,23,12.50
2014,09,20,04,24,12.50
2014,09,20,04,25,12.50
2014,09,20,04,26,12.50
2014,09,20,04,27,12.50
2014,09,20,04,28,12.50
2014,09,20,04,29,12.40
2014,09,20,04,30,12.40
2014,09,20,04,31,12.40
2014,09,20,04,32,12.40
2014,09,20,04,33,12.30
2014,09,20,04,34,12.30
2014,09,20,04,35,12.30
2014,09,20,04,36,12.30
2014,09,20,04,37,12.30
2014,09,20,04,38,12.30
2014,09,20,04,39,12.30
2014,09,20,04,40,12.30
2014,09,20,04,41,12.30
2014,09,20,04,42,12.30
2014,09,20,04,43,12.30
2014,09,20,04,44,12.30
2014,09,20,04,45,12.30
2014,09,20,04,46,12.30
2014,09,20,04,47,12.30
2014,09,20,04,48,12.30
2014,09,20,04,49,12.30
2014,09,20,04,50,12.30
2014,09,20,04,51,12.30
2014,09,20,04,52,12.30
2014,09,20,04,53,12.30
2014,09,20,04,54,12.30
2014,09,20,04,55,12.30
2014,09,20,04,56,12.30
2014,09,20,04,57,12.30
2014,09,20,04,58,12.30
2014,09,20,04,59,12.30
2014,09,20,05,00,12.30
2014,09,20,05,01,12.30
2014,09,20,05,02,12.20
2014,09,20,05,03,12.20
2014,09,20,05,04,12.20
2014,09,20,05,05,12.10
2014,09,20,05,06,12.10
2014,09,20,05,07,12.20
2014,09,20,05,08,12.20
2014,09,20,05,09,12.20
2014,09,20,05,10,12.20
2014,09,20,05,11,12.20
2014,09,20,05,12,12.20
2014,09,20,05,13,12.20
2014,09,20,05,14,12.20
2014,09,20,05,15,12.20
2014,09,20,05,16,12.20
2014,09,20,05,17,12.20
2014,09,20,05,18,12.20
2014,09,20,05,19,12.10
2014,09,20,05,20,12.10
2014,09,20,05,21,12.10
2014,09,20,05,22,12.10
2014,09,20,05,23,12.10
2014,09,20,05,24,12.10
2014,09,20,05,25,12.00
2014,09,20,05,26,12.00
2014,09,20,05,27,12.00
2014,09,20,05,28,12.00
2014,09,20,05,29,12.00
2014,09,20,05,30,11.90
2014,09,20,05,31,11.90
2014,09,20,05,32,11.90
2014,09,20,05,33,11.90
2014,09,20,05,34,11.90
2014,09,20,05,35,11.90
2014,09,20,05,36,11.90
2014,09,20,05,37,11.90
2014,09,20,05,38,11.90
2014,09,20,05,39,11.90
2014,09,20,05,40,11.90
2014,09,20,05,41,11.90
2014,09,20,05,42,11.90
2014,09,20,05,43,11.90
2014,09,20,05,44,11.90
2014,09,20,05,45,11.90
2014,09,20,05,46,11.90
2014,09,20,05,47,11.90
2014,09,20,05,48,11.90
2014,09,20,05,49,11.90
2014,09,20,05,50,11.90
2014,09,20,05,51,11.90
2014,09,20,05,52,12.00
2014,09,20,05,53,12.00
2014,09,20,05,54,12.00
2014,09,20,05,55,12.00
2014,09,20,05,56,12.00
2014,09,20,05,57,12.00
2014,09,20,05,58,12.00
2014,09,20,05,59,12.00
2014,09,20,06,00,12.00
2014,09,20,06,01,12.00
2014,09,20,06,02,12.00
2014,09,20,06,03,12.00
2014,09,20,06,04,12.00
2014,09,20,06,05,12.00
2014,09,20,06,06,12.00
2014,09,20,06,07,12.00
2014,09,20,06,08,12.00
2014,09,20,06,09,11.90
2014,09,20,06,10,11.90
2014,09,20,06,11,11.90
2014,09,20,06,12,11.90
2014,09,20,06,13,11.90
2014,09,20,06,14,11.90
2014,09,20,06,15,11.90
2014,09,20,06,16,11.80
2014,09,20,06,17,11.80
2014,09,20,06,18,11.80
2014,09,20,06,19,11.80
2014,09,20,06,20,11.80
2014,09,20,06,21,11.80
2014,09,20,06,22,11.80
2014,09,20,06,23,11.80
2014,09,20,06,24,11.80
2014,09,20,06,25,11.80
2014,09,20,06,26,11.80
2014,09,20,06,27,11.80
2014,09,20,06,28,11.80
2014,09,20,06,29,11.80
2014,09,20,06,30,11.80
2014,09,20,06,31,11.80
2014,09,20,06,32,11.80
2014,09,20,06,33,11.80
2014,09,20,06,34,11.80
2014,09,20,06,35,11.80
2014,09,20,06,36,11.90
2014,09,20,06,37,11.90
2014,09,20,06,38,11.90
2014,09,20,06,39,11.90
2014,09,20,06,40,11.90
2014,09,20,06,41,11.90
2014,09,20,06,42,11.90
2014,09,20,06,43,11.90
2014,09,20,06,44,12.00
2014,09,20,06,45,12.00
2014,09,20,06,46,12.00
2014,09,20,06,47,12.00
2014,09,20,06,48,12.00
2014,09,20,06,49,12.10
2014,09,20,06,50,12.10
2014,09,20,06,51,12.10
2014,09,20,06,52,12.10
2014,09,20,06,53,12.10
2014,09,20,06,54,12.20
2014,09,20,06,55,12.20
2014,09,20,06,56,12.20
2014,09,20,06,57,12.20
2014,09,20,06,58,12.20
2014,09,20,06,59,12.30
2014,09,20,07,00,12.30
2014,09,20,07,01,12.30
2014,09,20,07,02,12.30
2014,09,20,07,03,12.30
2014,09,20,07,04,12.30
2014,09,20,07,05,12.30
2014,09,20,07,06,12.40
2014,09,20,07,07,12.40
2014,09,20,07,08,12.40
2014,09,20,07,09,12.40
2014,09,20,07,10,12.40
2014,09,20,07,11,12.50
2014,09,20,07,12,12.50
2014,09,20,07,13,12.50
2014,09,20,07,14,12.50
2014,09,20,07,15,12.60
2014,09,20,07,16,12.60
2014,09,20,07,17,12.60
2014,09,20,07,18,12.60
2014,09,20,07,19,12.70
2014,09,20,07,20,12.70
2014,09,20,07,21,12.70
2014,09,20,07,22,12.70
2014,09,20,07,23,12.80
2014,09,20,07,24,12.80
2014,09,20,07,25,12.80
2014,09,20,07,26,12.80
2014,09,20,07,27,12.80
2014,09,20,07,28,12.80
2014,09,20,07,29,12.80
2014,09,20,07,30,12.80
2014,09,20,07,31,12.80
2014,09,20,07,32,12.80
2014,09,20,07,33,12.80
2014,09,20,07,34,12.80
2014,09,20,07,35,12.80
2014,09,20,07,36,12.80
2014,09,20,07,37,12.70
2014,09,20,07,38,12.70
2014,09,20,07,39,12.70
2014,09,20,07,40,12.60
2014,09,20,07,41,12.60
2014,09,20,07,42,12.60
2014,09,20,07,43,12.60
2014,09,20,07,44,12.50
2014,09,20,07,45,12.50
2014,09,20,07,46,12.50
2014,09,20,07,47,12.40
2014,09,20,07,48,12.40
2014,09,20,07,49,12.40
2014,09,20,07,50,12.40
2014,09,20,07,51,12.40
2014,09,20,07,52,12.30
2014,09,20,07,53,12.30
2014,09,20,07,54,12.30
2014,09,20,07,55,12.30
2014,09,20,07,56,12.30
2014,09,20,07,57,12.30
2014,09,20,07,58,12.30
2014,09,20,07,59,12.30
2014,09,20,08,00,12.30
2014,09,20,08,01,12.30
2014,09,20,08,02,12.40
2014,09,20,08,03,12.40
2014,09,20,08,04,12.40
2014,09,20,08,05,12.40
2014,09,20,08,06,12.40
2014,09,20,08,07,12.40
2014,09,20,08,08,12.40
2014,09,20,08,09,12.40
2014,09,20,08,10,12.40
2014,09,20,08,11,12.40
2014,09,20,08,12,12.40
2014,09,20,08,13,12.40
2014,09,20,08,14,12.40
2014,09,20,08,15,12.40
2014,09,20,08,16,12.50
2014,09,20,08,17,12.50
2014,09,20,08,18,12.50
2014,09,20,08,19,12.50
2014,09,20,08,20,12.60
2014,09,20,08,21,12.60
2014,09,20,08,22,12.60
2014,09,20,08,23,12.60
2014,09,20,08,24,12.60
2014,09,20,08,25,12.60
2014,09,20,08,26,12.70
2014,09,20,08,27,12.70
2014,09,20,08,28,12.70
2014,09,20,08,29,12.70
2014,09,20,08,30,12.70
2014,09,20,08,31,12.70
2014,09,20,08,32,12.80
2014,09,20,08,33,12.80
2014,09,20,08,34,12.80
2014,09,20,08,35,12.90
2014,09,20,08,36,13.10
2014,09,20,08,37,13.20
2014,09,20,08,38,13.20
2014,09,20,08,39,13.30
2014,09,20,08,40,13.30
2014,09,20,08,41,13.40
2014,09,20,08,42,13.50
2014,09,20,08,43,13.70
2014,09,20,08,44,13.80
2014,09,20,08,45,14.10
2014,09,20,08,46,14.40
2014,09,20,08,47,14.60
2014,09,20,08,48,14.80
2014,09,20,08,49,15.00
2014,09,20,08,50,15.10
2014,09,20,08,51,15.20
2014,09,20,08,52,15.30
2014,09,20,08,53,15.30
2014,09,20,08,54,15.40
2014,09,20,08,55,15.40
2014,09,20,08,56,15.40
2014,09,20,08,57,15.50
2014,09,20,08,58,15.50
2014,09,20,08,59,15.50
2014,09,20,09,00,15.60
2014,09,20,09,01,15.60
2014,09,20,09,02,15.70
2014,09,20,09,03,15.70
2014,09,20,09,04,15.80
2014,09,20,09,05,15.80
2014,09,20,09,06,15.80
2014,09,20,09,07,15.80
2014,09,20,09,08,15.80
2014,09,20,09,09,15.90
2014,09,20,09,10,15.90
2014,09,20,09,11,16.00
2014,09,20,09,12,16.10
2014,09,20,09,13,16.10
2014,09,20,09,14,16.10
2014,09,20,09,15,16.10
2014,09,20,09,16,16.10
2014,09,20,09,17,16.10
2014,09,20,09,18,16.10
2014,09,20,09,19,16.10
2014,09,20,09,20,16.10
2014,09,20,09,21,16.20
2014,09,20,09,22,16.20
2014,09,20,09,23,16.20
2014,09,20,09,24,16.20
2014,09,20,09,25,16.20
2014,09,20,09,26,16.30
2014,09,20,09,27,16.30
2014,09,20,09,28,16.30
2014,09,20,09,29,16.20
2014,09,20,09,30,16.20
2014,09,20,09,31,16.20
2014,09,20,09,32,16.20
2014,09,20,09,33,16.20
2014,09,20,09,34,16.10
2014,09,20,09,35,16.20
2014,09,20,09,36,16.20
2014,09,20,09,37,16.20
2014,09,20,09,38,16.20
2014,09,20,09,39,16.20
2014,09,20,09,40,16.20
2014,09,20,09,41,16.20
2014,09,20,09,42,16.20
2014,09,20,09,43,16.30
2014,09,20,09,44,16.30
2014,09,20,09,45,16.30
2014,09,20,09,46,16.30
2014,09,20,09,47,16.30
2014,09,20,09,48,16.40
2014,09,20,09,49,16.40
2014,09,20,09,50,16.40
2014,09,20,09,51,16.50
2014,09,20,09,52,16.60
2014,09,20,09,53,16.60
2014,09,20,09,54,16.60
2014,09,20,09,55,16.60
2014,09,20,09,56,16.60
2014,09,20,09,57,16.70
2014,09,20,09,58,16.70
2014,09,20,09,59,16.70
2014,09,20,10,00,16.70
2014,09,20,10,01,16.70
2014,09,20,10,02,16.70
2014,09,20,10,03,16.70
2014,09,20,10,04,16.80
2014,09,20,10,05,16.70
2014,09,20,10,06,16.80
2014,09,20,10,07,16.80
2014,09,20,10,08,16.80
2014,09,20,10,09,16.90
2014,09,20,10,10,16.90
2014,09,20,10,11,17.00
2014,09,20,10,12,17.00
2014,09,20,10,13,17.00
2014,09,20,10,14,17.10
2014,09,20,10,15,17.20
2014,09,20,10,16,17.20
2014,09,20,10,17,17.20
2014,09,20,10,18,17.10
2014,09,20,10,19,17.10
2014,09,20,10,20,17.10
2014,09,20,10,21,17.10
2014,09,20,10,22,17.10
2014,09,20,10,23,17.10
2014,09,20,10,24,17.00
2014,09,20,10,25,17.00
2014,09,20,10,26,17.00
2014,09,20,10,27,17.00
2014,09,20,10,28,17.00
2014,09,20,10,29,17.00
2014,09,20,10,30,17.10
2014,09,20,10,31,17.10
2014,09,20,10,32,17.10
2014,09,20,10,33,17.10
2014,09,20,10,34,17.10
2014,09,20,10,35,17.20
2014,09,20,10,36,17.20
2014,09,20,10,37,17.30
2014,09,20,10,38,17.30
2014,09,20,10,39,17.40
2014,09,20,10,40,17.50
2014,09,20,10,41,17.60
2014,09,20,10,42,17.60
2014,09,20,10,43,17.60
2014,09,20,10,44,17.60
2014,09,20,10,45,17.70
2014,09,20,10,46,17.70
2014,09,20,10,47,17.80
2014,09,20,10,48,17.90
2014,09,20,10,49,17.90
2014,09,20,10,50,17.90
2014,09,20,10,51,18.10
2014,09,20,10,52,18.10
2014,09,20,10,53,18.10
2014,09,20,10,54,18.10
2014,09,20,10,55,18.20
2014,09,20,10,56,18.10
2014,09,20,10,57,18.10
2014,09,20,10,58,18.10
2014,09,20,10,59,18.10
2014,09,20,11,00,18.20
2014,09,20,11,01,18.30
2014,09,20,11,02,18.30
2014,09,20,11,03,18.30
2014,09,20,11,04,18.30
2014,09,20,11,05,18.20
2014,09,20,11,06,18.20
2014,09,20,11,07,18.20
2014,09,20,11,08,18.20
2014,09,20,11,09,18.30
2014,09,20,11,10,18.30
2014,09,20,11,11,18.30
2014,09,20,11,12,18.30
2014,09,20,11,13,18.30
2014,09,20,11,14,18.30
2014,09,20,11,15,18.30
2014,09,20,11,16,18.30
2014,09,20,11,17,18.40
2014,09,20,11,18,18.40
2014,09,20,11,19,18.40
2014,09,20,11,20,18.50
2014,09,20,11,21,18.50
2014,09,20,11,22,18.50
2014,09,20,11,23,18.50
2014,09,20,11,24,18.40
2014,09,20,11,25,18.40
2014,09,20,11,26,18.40
2014,09,20,11,27,18.40
2014,09,20,11,28,18.40
2014,09,20,11,29,18.30
2014,09,20,11,30,18.30
2014,09,20,11,31,18.30
2014,09,20,11,32,18.30
2014,09,20,11,33,18.30
2014,09,20,11,34,18.30
2014,09,20,11,35,18.40
2014,09,20,11,36,18.40
2014,09,20,11,37,18.50
2014,09,20,11,38,18.60
2014,09,20,11,39,18.70
2014,09,20,11,40,18.80
2014,09,20,11,41,18.90
2014,09,20,11,42,18.90
2014,09,20,11,43,19.00
2014,09,20,11,44,19.00
2014,09,20,11,45,19.10
2014,09,20,11,46,19.10
2014,09,20,11,47,19.10
2014,09,20,11,48,18.90
2014,09,20,11,49,18.90
2014,09,20,11,50,18.90
2014,09,20,11,51,18.90
2014,09,20,11,52,18.80
2014,09,20,11,53,18.70
2014,09,20,11,54,18.70
2014,09,20,11,55,18.70
2014,09,20,11,56,18.60
2014,09,20,11,57,18.60
2014,09,20,11,58,18.70
2014,09,20,11,59,18.70
2014,09,20,12,00,18.70
2014,09,20,12,01,18.70
2014,09,20,12,02,18.70
2014,09,20,12,03,18.80
2014,09,20,12,04,18.80
2014,09,20,12,05,18.80
2014,09,20,12,06,18.80
2014,09,20,12,07,18.90
2014,09,20,12,08,18.80
2014,09,20,12,09,18.80
2014,09,20,12,10,18.80
2014,09,20,12,11,18.80
2014,09,20,12,12,18.90
2014,09,20,12,13,18.90
2014,09,20,12,14,18.90
2014,09,20,12,15,18.90
2014,09,20,12,16,18.90
2014,09,20,12,17,18.90
2014,09,20,12,18,19.00
2014,09,20,12,19,19.00
2014,09,20,12,20,19.10
2014,09,20,12,21,19.10
2014,09,20,12,22,19.10
2014,09,20,12,23,19.10
2014,09,20,12,24,19.10
2014,09,20,12,25,19.10
2014,09,20,12,26,19.10
2014,09,20,12,27,19.20
2014,09,20,12,28,19.10
2014,09,20,12,29,19.10
2014,09,20,12,30,19.10
2014,09,20,12,31,19.10
2014,09,20,12,32,19.10
2014,09,20,12,33,19.10
2014,09,20,12,34,19.10
2014,09,20,12,35,19.10
2014,09,20,12,36,19.10
2014,09,20,12,37,19.10
2014,09,20,12,38,19.10
2014,09,20,12,39,19.10
2014,09,20,12,40,19.10
2014,09,20,12,41,19.10
2014,09,20,12,42,19.10
2014,09,20,12,43,19.10
2014,09,20,12,44,19.10
2014,09,20,12,45,19.10
2014,09,20,12,46,19.10
2014,09,20,12,47,19.20
2014,09,20,12,48,19.30
2014,09,20,12,49,19.30
2014,09,20,12,50,19.30
2014,09,20,12,51,19.30
2014,09,20,12,52,19.30
2014,09,20,12,53,19.30
2014,09,20,12,54,19.30
2014,09,20,12,55,19.30
2014,09,20,12,56,19.30
2014,09,20,12,57,19.40
2014,09,20,12,58,19.40
2014,09,20,12,59,19.50
2014,09,20,13,00,19.60
2014,09,20,13,01,19.70
2014,09,20,13,02,19.80
2014,09,20,13,03,19.90
2014,09,20,13,04,19.80
2014,09,20,13,05,19.80
2014,09,20,13,06,19.80
2014,09,20,13,07,19.80
2014,09,20,13,08,19.90
2014,09,20,13,09,19.80
2014,09,20,13,10,19.80
2014,09,20,13,11,19.70
2014,09,20,13,12,19.70
2014,09,20,13,13,19.80
2014,09,20,13,14,19.90
2014,09,20,13,15,19.90
2014,09,20,13,16,20.10
2014,09,20,13,17,20.10
2014,09,20,13,18,20.20
2014,09,20,13,19,20.10
2014,09,20,13,20,20.00
2014,09,20,13,21,19.90
2014,09,20,13,22,19.90
2014,09,20,13,23,19.90
2014,09,20,13,24,19.80
2014,09,20,13,25,19.70
2014,09,20,13,26,19.70
2014,09,20,13,27,19.70
2014,09,20,13,28,19.60
2014,09,20,13,29,19.60
2014,09,20,13,30,19.60
2014,09,20,13,31,19.60
2014,09,20,13,32,19.60
2014,09,20,13,33,19.70
2014,09,20,13,34,19.60
2014,09,20,13,35,19.60
2014,09,20,13,36,19.60
2014,09,20,13,37,19.70
2014,09,20,13,38,19.70
2014,09,20,13,39,19.70
2014,09,20,13,40,19.80
2014,09,20,13,41,19.90
2014,09,20,13,42,19.90
2014,09,20,13,43,19.80
2014,09,20,13,44,19.80
2014,09,20,13,45,19.80
2014,09,20,13,46,19.80
2014,09,20,13,47,19.80
2014,09,20,13,48,19.90
2014,09,20,13,49,19.90
2014,09,20,13,50,19.90
2014,09,20,13,51,19.90
2014,09,20,13,52,19.90
2014,09,20,13,53,19.80
2014,09,20,13,54,19.80
2014,09,20,13,55,19.80
2014,09,20,13,56,19.90
2014,09,20,13,57,19.90
2014,09,20,13,58,19.90
2014,09,20,13,59,19.90
2014,09,20,14,00,19.90
2014,09,20,14,01,19.90
2014,09,20,14,02,19.90
2014,09,20,14,03,19.90
2014,09,20,14,04,19.90
2014,09,20,14,05,19.90
2014,09,20,14,06,20.00
2014,09,20,14,07,20.10
2014,09,20,14,08,20.20
2014,09,20,14,09,20.20
2014,09,20,14,10,20.20
2014,09,20,14,11,20.20
2014,09,20,14,12,20.20
2014,09,20,14,13,20.20
2014,09,20,14,14,20.10
2014,09,20,14,15,20.10
2014,09,20,14,16,20.10
2014,09,20,14,17,20.20
2014,09,20,14,18,20.20
2014,09,20,14,19,20.20
2014,09,20,14,20,20.30
2014,09,20,14,21,20.30
2014,09,20,14,22,20.40
2014,09,20,14,23,20.50
2014,09,20,14,24,20.50
2014,09,20,14,25,20.40
2014,09,20,14,26,20.40
2014,09,20,14,27,20.40
2014,09,20,14,28,20.50
2014,09,20,14,29,20.60
2014,09,20,14,30,20.70
2014,09,20,14,31,20.90
2014,09,20,14,32,20.90
2014,09,20,14,33,21.00
2014,09,20,14,34,20.90
2014,09,20,14,35,20.90
2014,09,20,14,36,20.80
2014,09,20,14,37,20.80
2014,09,20,14,38,20.80
2014,09,20,14,39,20.80
2014,09,20,14,40,20.90
2014,09,20,14,41,20.90
2014,09,20,14,42,21.00
2014,09,20,14,43,21.10
2014,09,20,14,44,21.20
2014,09,20,14,45,21.20
2014,09,20,14,46,21.10
2014,09,20,14,47,21.00
2014,09,20,14,48,21.00
2014,09,20,14,49,21.00
2014,09,20,14,50,21.00
2014,09,20,14,51,21.00
2014,09,20,14,52,21.10
2014,09,20,14,53,21.20
2014,09,20,14,54,21.20
2014,09,20,14,55,21.30
2014,09,20,14,56,21.30
2014,09,20,14,57,21.50
2014,09,20,14,58,21.60
2014,09,20,14,59,21.50
2014,09,20,15,00,21.30
2014,09,20,15,01,21.20
2014,09,20,15,02,21.10
2014,09,20,15,03,21.10
2014,09,20,15,04,21.10
2014,09,20,15,05,21.10
2014,09,20,15,06,21.10
2014,09,20,15,07,21.10
2014,09,20,15,08,21.20
2014,09,20,15,09,21.20
2014,09,20,15,10,21.30
2014,09,20,15,11,21.30
2014,09,20,15,12,21.50
2014,09,20,15,13,21.60
2014,09,20,15,14,21.60
2014,09,20,15,15,21.60
2014,09,20,15,16,21.60
2014,09,20,15,17,21.60
2014,09,20,15,18,21.60
2014,09,20,15,19,21.60
2014,09,20,15,20,21.60
2014,09,20,15,21,21.70
2014,09,20,15,22,21.70
2014,09,20,15,23,21.70
2014,09,20,15,24,21.80
2014,09,20,15,25,21.90
2014,09,20,15,26,22.00
2014,09,20,15,27,22.00
2014,09,20,15,28,22.00
2014,09,20,15,29,21.90
2014,09,20,15,30,21.90
2014,09,20,15,31,21.90
2014,09,20,15,32,21.90
2014,09,20,15,33,22.00
2014,09,20,15,34,22.00
2014,09,20,15,35,22.10
2014,09,20,15,36,22.10
2014,09,20,15,37,22.10
2014,09,20,15,38,22.10
2014,09,20,15,39,22.10
2014,09,20,15,40,22.10
2014,09,20,15,41,22.00
2014,09,20,15,42,22.00
2014,09,20,15,43,22.00
2014,09,20,15,44,22.00
2014,09,20,15,45,22.00
2014,09,20,15,46,22.10
2014,09,20,15,47,22.10
2014,09,20,15,48,22.20
2014,09,20,15,49,22.30
2014,09,20,15,50,22.30
2014,09,20,15,51,22.30
2014,09,20,15,52,22.30
2014,09,20,15,53,22.20
2014,09,20,15,54,22.30
2014,09,20,15,55,22.30
2014,09,20,15,56,22.30
2014,09,20,15,57,22.40
2014,09,20,15,58,22.40
2014,09,20,15,59,22.50
2014,09,20,16,00,22.50
2014,09,20,16,01,22.50
2014,09,20,16,02,22.50
2014,09,20,16,03,22.50
2014,09,20,16,04,22.50
2014,09,20,16,05,22.50
2014,09,20,16,06,22.40
2014,09,20,16,07,22.40
2014,09,20,16,08,22.40
2014,09,20,16,09,22.40
2014,09,20,16,10,22.40
2014,09,20,16,11,22.40
2014,09,20,16,12,22.40
2014,09,20,16,13,22.30
2014,09,20,16,14,22.20
2014,09,20,16,15,22.20
2014,09,20,16,16,22.20
2014,09,20,16,17,22.20
2014,09,20,16,18,22.20
2014,09,20,16,19,22.10
2014,09,20,16,20,22.10
2014,09,20,16,21,22.00
2014,09,20,16,22,22.00
2014,09,20,16,23,21.90
2014,09,20,16,24,21.80
2014,09,20,16,25,21.80
2014,09,20,16,26,21.80
2014,09,20,16,27,21.80
2014,09,20,16,28,21.90
2014,09,20,16,29,21.90
2014,09,20,16,30,22.00
2014,09,20,16,31,22.00
2014,09,20,16,32,22.00
2014,09,20,16,33,22.10
2014,09,20,16,34,22.10
2014,09,20,16,35,22.10
2014,09,20,16,36,22.20
2014,09,20,16,37,22.20
2014,09,20,16,38,22.30
2014,09,20,16,39,22.30
2014,09,20,16,40,22.30
2014,09,20,16,41,22.30
2014,09,20,16,42,22.30
2014,09,20,16,43,22.30
2014,09,20,16,44,22.30
2014,09,20,16,45,22.30
2014,09,20,16,46,22.30
2014,09,20,16,47,22.20
2014,09,20,16,48,22.20
2014,09,20,16,49,22.10
2014,09,20,16,50,22.10
2014,09,20,16,51,22.10
2014,09,20,16,52,22.10
2014,09,20,16,53,22.10
2014,09,20,16,54,22.20
2014,09,20,16,55,22.20
2014,09,20,16,56,22.20
2014,09,20,16,57,22.10
2014,09,20,16,58,22.10
2014,09,20,16,59,22.10
2014,09,20,17,00,22.00
2014,09,20,17,01,22.00
2014,09,20,17,02,22.00
2014,09,20,17,03,22.00
2014,09,20,17,04,22.00
2014,09,20,17,05,22.00
2014,09,20,17,06,22.00
2014,09,20,17,07,22.10
2014,09,20,17,08,22.10
2014,09,20,17,09,22.10
2014,09,20,17,10,22.10
2014,09,20,17,11,22.10
2014,09,20,17,12,22.20
2014,09,20,17,13,22.20
2014,09,20,17,14,22.10
2014,09,20,17,15,22.10
2014,09,20,17,16,22.10
2014,09,20,17,17,22.10
2014,09,20,17,18,22.10
2014,09,20,17,19,22.20